Home   Weather   Topeka   Past weeks

Flag for USA Past Weather in Topeka, Kansas, USA — Yesterday and Last 2 Weeks

Now
34 °F

Passing clouds.


Feels Like: 25 °F
Forecast: 34 / 59 °F
Wind: 14 mph from East

Location: Philip Billard Municipal Airport

Current Time: Jan 24, 2017 at 5:36:11 am

Latest Report: Jan 24, 2017 at 4:53 am


Visibility: 8 mi

Pressure: 29.71 "Hg

Humidity: 85%

Dew Point: 30 °F

Location of TopekaLocation

Past Weather in Topeka — Graph

°F

Topeka Temperature Yesterday

Maximum temperature yesterday: 42 °F (at 3:53 pm)
Minimum temperature yesterday: 24 °F (at 6:18 am)
Average temperature yesterday: 32 °F

High & Low Weather Summary for the Past Weeks

 TemperatureHumidityPressure
High61 °F (Jan 11, 12:53 pm)97% (Jan 20, 1:44 pm)30.64 "Hg (Jan 20, 1:44 pm)
Low16 °F (Jan 12, 6:53 am)44% (Jan 14, 2:53 pm)29.33 "Hg (Jan 10, 5:53 am)
Average37 °F78%29.94 "Hg
* Reported Jan 9 3:53 am — Jan 24 3:53 am, Topeka, Weather by CustomWeather, © 2017

Note: Actual official high and low records may vary slightly from our data, if they occured in-between our weather recording intervals... More about our weather records

Advertising

Topeka Weather History for the Previous 24 Hours

Scroll right to see more
 ConditionsComfort  
Time TempWeatherWind HumidityBarometerVisibility
3:53 am
Tue, Jan 24
34 °FClear.12 mph85%29.73 "Hg8 mi
2:53 am33 °FFog.10 mph88%29.75 "Hg6 mi
1:53 am33 °FFog.10 mph85%29.77 "Hg5 mi
12:53 am32 °FIce fog.7 mph85%29.79 "Hg4 mi
11:53 pm
Mon, Jan 23
32 °FIce fog.7 mph88%29.80 "Hg4 mi
10:53 pm32 °FIce fog.7 mph88%29.82 "Hg5 mi
9:53 pm33 °FFog.7 mph88%29.83 "Hg5 mi
8:53 pm34 °FFog.7 mph85%29.83 "Hg6 mi
7:53 pm34 °FFog.7 mph85%29.84 "Hg6 mi
6:53 pm35 °FFog.7 mph85%29.83 "Hg6 mi
5:53 pm37 °FClear.9 mph82%29.82 "Hg7 mi
4:53 pm42 °FSunny.9 mph76%29.83 "Hg7 mi
3:53 pm42 °FSunny.7 mph76%29.83 "Hg6 mi
3:08 pm39 °FScattered clouds.12 mph82%29.81 "Hg4 mi
2:53 pm40 °FPartly sunny.10 mph80%29.83 "Hg5 mi
1:53 pm37 °FFog.8 mph86%29.86 "Hg4 mi
1:36 pm36 °FFog.7 mph89%29.85 "Hg4 mi
1:02 pm35 °FFog.7 mph92%29.87 "Hg3 mi
12:13 pm34 °FFog.3 mph92%29.90 "Hg1 mi
11:53 am34 °FFog.No wind92%29.94 "Hg1 mi
11:26 am33 °FFog.No wind92%29.92 "Hg0 mi
10:53 am32 °FFog.No wind92%29.96 "Hg0 mi
9:53 am30 °FIce fog.No wind92%29.94 "Hg0 mi
8:55 am30 °FIce fog.8 mph89%29.91 "Hg1 mi
8:27 am27 °FIce fog.No wind89%29.91 "Hg3 mi
7:52 am26 °FIce fog.No wind84%29.92 "Hg1 mi
6:53 am28 °FIce fog.3 mph89%29.93 "Hg6 mi
6:18 am24 °FIce fog.3 mph91%29.91 "Hg3 mi
6:03 am26 °FIce fog.No wind84%29.91 "Hg1 mi
5:20 am25 °FIce fog.No wind88%29.90 "Hg1 mi
Weather by CustomWeather, © 2017

See weather overviewHow to use our weather pages